TimeEST,TemperatureF,Dew PointF,Humidity,Sea Level PressureIn,VisibilityMPH,Wind Direction,Wind SpeedMPH,Gust SpeedMPH,PrecipitationIn,Events,Conditions,WindDirDegrees,DateUTC
12:15 AM,26.4,9.5,49,30.32,10.0,WNW,9.2,-,N/A,,Clear,300,2014-01-01 05:15:00
12:35 AM,26.6,9.0,47,30.33,10.0,WNW,10.4,-,N/A,,Clear,290,2014-01-01 05:35:00
12:55 AM,26.1,9.3,49,30.33,10.0,WNW,10.4,-,N/A,,Clear,300,2014-01-01 05:55:00
1:15 AM,25.7,9.5,50,30.34,10.0,WNW,10.4,-,N/A,,Clear,300,2014-01-01 06:15:00
1:35 AM,25.7,9.7,51,30.35,10.0,WNW,10.4,-,N/A,,Clear,290,2014-01-01 06:35:00
1:55 AM,25.5,9.7,51,30.35,10.0,WNW,10.4,-,N/A,,Clear,290,2014-01-01 06:55:00
2:15 AM,25.5,10.0,52,30.37,10.0,WNW,8.1,-,N/A,,Clear,300,2014-01-01 07:15:00
2:35 AM,25.2,9.7,52,30.37,10.0,WNW,8.1,-,N/A,,Clear,300,2014-01-01 07:35:00
2:55 AM,25.2,9.7,52,30.38,10.0,WNW,8.1,-,N/A,,Clear,300,2014-01-01 07:55:00
3:15 AM,24.8,9.7,53,30.38,10.0,WNW,6.9,-,N/A,,Clear,290,2014-01-01 08:15:00
3:35 AM,25.3,9.5,51,30.38,10.0,West,4.6,-,N/A,,Clear,280,2014-01-01 08:35:00
3:55 AM,25.3,9.5,51,30.39,10.0,West,6.9,-,N/A,,Clear,280,2014-01-01 08:55:00
4:15 AM,25.3,9.9,52,30.39,10.0,West,4.6,-,N/A,,Clear,280,2014-01-01 09:15:00
4:35 AM,25.0,9.9,53,30.39,10.0,West,3.5,-,N/A,,Mostly Cloudy,260,2014-01-01 09:35:00
4:55 AM,25.2,10.0,53,30.39,10.0,Calm,Calm,-,N/A,,Overcast,0,2014-01-01 09:55:00
5:15 AM,25.3,10.6,54,30.39,10.0,Calm,Calm,-,N/A,,Overcast,0,2014-01-01 10:15:00
5:35 AM,25.2,11.1,55,30.40,10.0,Calm,Calm,-,N/A,,Overcast,0,2014-01-01 10:35:00
5:55 AM,25.3,11.5,56,30.40,10.0,Calm,Calm,-,N/A,,Overcast,0,2014-01-01 10:55:00
6:15 AM,25.3,11.7,56,30.41,10.0,Calm,Calm,-,N/A,,Scattered Clouds,0,2014-01-01 11:15:00
6:35 AM,24.8,11.8,58,30.41,10.0,Calm,Calm,-,N/A,,Clear,0,2014-01-01 11:35:00
6:55 AM,24.8,12.2,59,30.41,10.0,Calm,Calm,-,N/A,,Clear,0,2014-01-01 11:55:00
7:15 AM,24.3,12.9,62,30.41,10.0,Calm,Calm,-,N/A,,Clear,0,2014-01-01 12:15:00
7:35 AM,24.3,13.6,64,30.42,10.0,Calm,Calm,-,N/A,,Mostly Cloudy,0,2014-01-01 12:35:00
7:55 AM,24.8,13.5,62,30.42,10.0,Calm,Calm,-,N/A,,Mostly Cloudy,0,2014-01-01 12:55:00
8:15 AM,25.0,14.5,65,30.42,10.0,Calm,Calm,-,N/A,,Scattered Clouds,0,2014-01-01 13:15:00
8:35 AM,26.4,14.9,62,30.42,10.0,Calm,Calm,-,N/A,,Clear,0,2014-01-01 13:35:00
8:55 AM,27.7,15.1,59,30.43,10.0,Calm,Calm,-,N/A,,Clear,0,2014-01-01 13:55:00
9:15 AM,28.8,14.9,56,30.44,10.0,Calm,Calm,-,N/A,,Clear,0,2014-01-01 14:15:00
9:35 AM,30.7,16.2,55,30.44,10.0,Calm,Calm,-,N/A,,Clear,0,2014-01-01 14:35:00
9:55 AM,31.1,16.2,54,30.45,10.0,Calm,Calm,-,N/A,,Clear,0,2014-01-01 14:55:00
10:15 AM,30.9,15.6,53,30.44,10.0,Calm,Calm,-,N/A,,Clear,0,2014-01-01 15:15:00
10:35 AM,30.9,15.3,52,30.45,10.0,Calm,Calm,-,N/A,,Clear,0,2014-01-01 15:35:00
10:55 AM,31.5,15.8,52,30.44,10.0,Calm,Calm,-,N/A,,Clear,0,2014-01-01 15:55:00
11:15 AM,31.8,16.2,52,30.43,10.0,Calm,Calm,-,N/A,,Mostly Cloudy,0,2014-01-01 16:15:00
11:35 AM,32.0,16.7,53,30.42,10.0,West,4.6,-,N/A,,Scattered Clouds,270,2014-01-01 16:35:00
11:55 AM,32.2,16.5,53,30.41,10.0,WNW,5.8,-,N/A,,Clear,300,2014-01-01 16:55:00
12:15 PM,32.5,16.7,52,30.40,10.0,West,6.9,-,N/A,,Clear,270,2014-01-01 17:15:00
12:35 PM,32.7,16.9,52,30.39,10.0,West,8.1,-,N/A,,Clear,270,2014-01-01 17:35:00
12:55 PM,33.1,17.1,52,30.39,10.0,WNW,6.9,-,N/A,,Clear,290,2014-01-01 17:55:00
1:15 PM,33.3,16.5,50,30.39,10.0,West,8.1,-,N/A,,Clear,280,2014-01-01 18:15:00
1:35 PM,33.4,16.0,49,30.38,10.0,West,4.6,-,N/A,,Clear,270,2014-01-01 18:35:00
1:55 PM,33.8,15.6,47,30.37,10.0,West,5.8,-,N/A,,Scattered Clouds,280,2014-01-01 18:55:00
2:15 PM,34.0,16.3,49,30.37,10.0,West,5.8,-,N/A,,Scattered Clouds,280,2014-01-01 19:15:00
2:35 PM,34.0,16.5,49,30.36,10.0,WNW,3.5,-,N/A,,Scattered Clouds,290,2014-01-01 19:35:00
2:55 PM,34.0,17.4,51,30.36,10.0,Calm,Calm,-,N/A,,Mostly Cloudy,0,2014-01-01 19:55:00
3:15 PM,34.0,16.7,49,30.36,10.0,Calm,Calm,-,N/A,,Mostly Cloudy,0,2014-01-01 20:15:00
3:35 PM,34.2,17.1,50,30.36,10.0,WNW,4.6,-,N/A,,Overcast,290,2014-01-01 20:35:00
3:55 PM,34.2,17.4,50,30.36,10.0,Calm,Calm,-,N/A,,Overcast,0,2014-01-01 20:55:00
4:15 PM,34.0,17.8,52,30.35,10.0,NNW,3.5,-,N/A,,Overcast,330,2014-01-01 21:15:00
4:35 PM,33.8,17.8,52,30.35,10.0,Calm,Calm,-,N/A,,Mostly Cloudy,0,2014-01-01 21:35:00
4:55 PM,33.4,18.7,55,30.34,10.0,Calm,Calm,-,N/A,,Scattered Clouds,0,2014-01-01 21:55:00
5:15 PM,34.5,17.6,50,30.34,10.0,Calm,Calm,-,N/A,,Clear,0,2014-01-01 22:15:00
5:35 PM,34.0,18.0,52,30.34,10.0,ESE,3.5,-,N/A,,Clear,120,2014-01-01 22:35:00
5:55 PM,33.8,18.7,54,30.35,10.0,ESE,3.5,-,N/A,,Clear,110,2014-01-01 22:55:00
6:15 PM,33.8,18.7,54,30.35,10.0,Calm,Calm,-,N/A,,Clear,0,2014-01-01 23:15:00
6:35 PM,33.4,19.6,57,30.34,10.0,NNE,3.5,-,N/A,,Scattered Clouds,30,2014-01-01 23:35:00
6:55 PM,33.8,18.9,54,30.35,10.0,ENE,3.5,-,N/A,,Mostly Cloudy,60,2014-01-01 23:55:00
7:15 PM,34.0,18.7,54,30.34,10.0,Calm,Calm,-,N/A,,Mostly Cloudy,0,2014-01-02 00:15:00
7:35 PM,34.0,18.5,53,30.34,10.0,Calm,Calm,-,N/A,,Scattered Clouds,0,2014-01-02 00:35:00
7:55 PM,34.0,18.5,53,30.34,10.0,ENE,3.5,-,N/A,,Clear,70,2014-01-02 00:55:00
8:15 PM,33.8,19.4,56,30.34,10.0,NE,3.5,-,N/A,,Clear,50,2014-01-02 01:15:00
8:35 PM,33.8,18.9,54,30.33,10.0,NE,3.5,-,N/A,,Clear,40,2014-01-02 01:35:00
8:55 PM,33.6,18.9,55,30.32,10.0,NE,5.8,-,N/A,,Scattered Clouds,50,2014-01-02 01:55:00
9:15 PM,33.8,19.2,55,30.32,10.0,NE,6.9,-,N/A,,Mostly Cloudy,40,2014-01-02 02:15:00
9:35 PM,33.8,20.3,58,30.32,10.0,NE,6.9,-,N/A,,Overcast,50,2014-01-02 02:35:00
9:55 PM,34.3,21.7,60,30.30,10.0,East,8.1,-,N/A,,Overcast,90,2014-01-02 02:55:00
10:15 PM,34.5,22.1,61,30.30,10.0,East,9.2,-,N/A,,Overcast,90,2014-01-02 03:15:00
10:35 PM,34.3,21.9,60,30.31,10.0,ENE,5.8,-,N/A,,Overcast,60,2014-01-02 03:35:00
10:55 PM,34.3,21.6,60,30.29,10.0,East,9.2,-,N/A,,Overcast,100,2014-01-02 03:55:00
11:15 PM,34.2,21.9,61,30.29,10.0,ESE,6.9,-,N/A,,Overcast,110,2014-01-02 04:15:00
11:35 PM,34.3,21.7,60,30.28,10.0,East,8.1,-,N/A,,Overcast,100,2014-01-02 04:35:00
11:55 PM,34.3,21.7,60,30.28,10.0,East,8.1,-,N/A,,Overcast,100,2014-01-02 04:55:00